SCP
0 0 0 0 0 0 0 0 0 0 0 0 0 0 0 0 0 0 0 0 0 0 0 0 0 0 0 0 0 1 0 0 0 0 -0 0 0 0 0 0 0 0 0 0 0 0 -0 0 0 0 0 0 0 0
0 0 0 0 0 0 0 0 0 0 0 0 0 0 0 0 0 0 0 0 0 0 0 0 0 0 0 0 1 1 1 1 1 0 0 0 0 0 0 0 0 0 0 0 0 0 0 0 -0 0 0 1 1 0
0 0 0 0 0 0 0 0 0 0 0 0 0 0 0 0 0 0 0 0 0 0 0 0 0 0 0 0 0 1 1 1 1 1 1 0 0 0 0 0 0 0 0 0 0 0 1 0 0 0 0 1 1 0
0 0 0 0 0 0 0 0 0 0 0 0 0 0 0 0 0 0 0 0 0 0 0 0 0 0 0 0 0 0 0 1 1 1 1 0 0 0 0 0 0 0 0 0 0 0 0 0 1 1 1 1 0 0
0 0 0 0 0 0 0 0 0 0 0 0 0 0 0 0 0 0 0 0 0 0 0 0 0 0 0 0 0 0 0 1 1 1 1 0 0 1 0 0 0 0 0 0 0 1 1 2 1 1 1 1 0 0
0 0 0 0 0 0 0 0 0 0 0 0 0 0 0 0 0 0 0 0 0 0 0 0 0 0 0 0 0 0 0 0 0 0 0 0 1 1 0 0 0 0 0 0 1 1 2 1 1 0 0 0 0 0
0 0 0 0 0 0 0 0 0 0 0 0 0 0 0 0 0 0 0 0 0 0 0 0 0 0 0 0 0 0 0 0 0 0 0 0 1 0 0 0 0 0 0 0 0 0 0 0 0 0 0 0 0 0
0 0 0 0 0 0 0 0 0 0 0 0 0 0 0 0 0 0 0 0 0 0 0 0 0 0 0 0 0 0 0 0 0 0 0 0 0 0 0 0 0 0 0 0 0 0 1 0 0 0 0 0 1 1
0 0 0 0 0 0 0 0 0 0 0 0 0 0 0 0 0 0 0 0 0 0 0 0 0 0 0 0 0 0 0 0 0 0 0 0 0 0 0 0 0 0 0 0 0 0 0 0 0 0 0 0 0 1
0 0 0 0 0 0 0 0 0 0 0 0 0 0 0 0 0 0 0 0 0 0 0 0 0 0 0 0 0 0 0 0 0 0 0 0 0 0 0 1 0 0 0 0 0 0 0 0 0 0 0 1 1 1
0 0 0 0 0 0 0 0 0 0 0 0 0 0 0 0 0 0 0 0 0 0 0 0 0 0 0 0 0 0 0 0 0 0 0 0 0 0 0 0 0 0 0 0 0 0 0 0 0 0 0 0 0 0
0 0 0 0 0 0 0 0 0 0 0 0 0 0 0 0 0 0 0 0 0 0 0 0 0 0 0 0 0 0 0 0 0 0 0 0 0 0 0 0 0 0 0 0 0 0 0 0 0 0 0 0 0 0
0 0 0 0 0 0 0 0 0 0 0 0 0 0 0 0 0 0 0 0 0 0 0 0 0 0 0 0 0 0 0 0 0 0 0 0 0 0 0 0 0 0 0 0 0 0 0 0 0 0 0 0 0 0
0 0 0 0 0 0 0 0 0 0 0 0 0 0 0 0 0 0 0 0 0 0 0 0 0 0 0 0 0 0 0 0 0 0 0 0 0 0 0 0 0 0 0 0 0 0 0 0 0 0 0 0 0 0
0 0 0 0 0 0 0 0 0 0 0 0 0 0 0 0 0 0 0 0 0 0 0 0 0 0 0 0 0 0 0 0 0 0 0 0 0 0 0 0 0 0 0 0 0 0 0 0 0 0 0 0 0 0
0 0 0 0 0 0 0 0 0 0 0 0 0 0 0 0 0 0 0 0 0 0 0 0 0 0 0 0 0 0 0 0 0 0 0 0 0 0 0 0 0 0 0 0 0 0 0 0 0 0 0 0 0 0
0 0 0 0 0 0 0 0 0 0 0 0 0 0 0 0 0 0 0 0 0 0 0 0 0 0 0 0 0 0 0 0 0 0 0 0 0 0 0 0 0 0 0 0 0 0 0 0 0 0 0 0 0 0
0 0 0 0 0 0 0 0 0 0 0 0 0 0 0 0 0 0 0 0 0 0 0 0 0 0 0 0 0 0 0 0 0 0 0 0 0 0 0 0 0 0 0 0 0 0 0 0 0 0 0 0 0 0
0 0 0 0 0 0 0 0 0 0 0 0 0 0 0 0 0 0 0 0 0 0 0 0 0 0 0 0 0 0 0 0 0 0 0 0 0 0 0 0 0 0 0 0 0 0 0 0 0 0 0 0 0 0
0 0 0 0 0 0 0 0 0 0 0 0 0 0 0 0 0 0 0 0 0 0 0 0 0 0 0 0 0 0 0 0 0 0 0 0 0 0 0 0 0 0 0 0 0 0 0 0 0 0 0 0 0 0
0 0 0 0 0 0 0 0 0 0 0 0 0 0 0 0 0 0 0 0 0 0 0 0 0 0 0 0 0 0 0 0 0 0 0 0 0 0 0 0 0 0 0 0 0 0 0 0 0 0 0 0 0 0
0 0 0 0 0 0 0 0 0 0 0 0 0 0 0 0 0 0 0 0 0 0 0 0 0 0 0 0 0 0 0 0 0 0 0 0 0 0 0 0 0 0 0 0 0 0 0 0 0 0 0 0 0 0
0 0 0 0 0 0 0 0 0 0 0 0 0 0 0 0 0 0 0 0 0 0 0 0 0 0 0 0 0 0 0 0 0 0 0 0 0 0 0 0 0 0 0 0 0 0 0 0 0 0 0 0 0 0
0 0 0 0 0 0 0 0 0 0 0 0 0 0 0 0 0 0 0 0 0 0 0 0 0 0 0 0 0 0 0 0 0 0 0 0 0 0 0 0 0 0 0 0 0 0 0 0 0 0 0 0 0 0
0 0 0 0 0 0 0 0 0 0 0 0 0 0 0 0 0 0 0 0 0 0 0 0 0 0 0 0 0 0 0 0 0 0 0 0 0 0 0 0 0 0 0 0 0 0 0 0 0 0 0 0 0 0
0 0 0 0 0 0 0 0 0 0 0 0 0 0 0 0 0 0 0 0 0 0 0 0 0 0 0 0 0 0 0 0 0 0 0 0 0 0 0 0 0 0 0 0 0 0 0 0 0 0 0 0 0 0
0 0 0 0 0 0 0 0 0 0 0 0 0 0 0 0 0 0 0 0 0 0 0 0 0 0 0 0 0 0 0 0 0 0 0 0 0 0 0 0 0 0 0 0 0 0 0 0 0 0 0 0 0 0
0 0 0 0 0 0 0 0 0 0 0 0 0 0 0 0 0 0 0 0 0 0 0 0 0 0 0 0 0 0 0 0 0 0 0 0 0 0 0 0 0 0 0 0 0 0 0 0 0 0 0 0 0 0
0 0 0 0 0 0 0 0 0 0 0 0 0 0 0 0 0 0 0 0 0 0 0 0 0 0 0 0 0 0 0 0 0 0 0 0 0 0 0 0 0 0 0 0 0 0 0 0 0 0 0 0 0 0
0 0 0 0 0 0 0 0 0 0 0 0 0 0 0 0 0 0 0 0 0 0 0 0 0 0 0 0 0 0 0 0 0 0 0 0 0 0 0 0 0 0 0 0 0 0 0 0 0 0 0 0 0 0
0 0 -0 0 0 0 -0 -0 -0 -0 -0 -0 -0 -0 -0 0 0 0 0 0 0 0 0 0 0 0 0 0 0 0 0 0 0 0 0 0 0 0 0 0 0 0 0 0 0 0 0 0 0 0 0 0 0 0
0 0 -0 -0 -0 -0 -0 0 0 0 0 0 -0 -0 -0 0 0 0 0 0 0 0 0 0 0 0 0 0 0 0 0 0 0 0 0 0 0 0 0 0 0 0 0 0 0 0 0 0 0 0 0 0 0 0
0 0 -0 -0 -0 -0 -0 -0 -0 -0 -0 -0 -0 -0 -0 0 0 0 0 0 0 0 0 0 0 0 0 0 0 0 0 0 0 0 0 0 0 0 0 0 0 0 0 0 0 0 0 0 0 0 0 0 0 0
Wind_Speed_500mb
53 60 56 58 56 54 50 45 42 38 33 30 26 23 22 28 27 20 17 23 20 24 5 16 8 10 10 14 15 11 10 18 16 20 22 18 12 5 14 16 15 18 19 21 23 28 29 38 17 8 9 5 6 9
69 62 62 62 58 55 50 45 42 37 33 29 25 21 19 23 27 23 10 21 23 18 9 11 12 9 4 5 11 6 7 8 12 10 18 17 8 19 5 18 9 14 13 13 15 11 16 17 31 6 1 3 9 7
71 66 63 65 61 56 50 45 41 37 32 28 25 21 18 19 23 22 9 13 14 17 26 22 24 17 5 4 4 11 9 10 3 8 18 11 7 11 11 18 22 19 5 11 17 2 2 5 3 2 2 1 5 6
76 69 67 66 61 56 51 46 41 36 32 28 25 21 18 19 20 15 8 15 17 9 18 29 14 9 11 6 2 3 8 9 9 10 21 13 15 6 19 9 11 16 7 17 18 25 11 6 12 6 8 9 9 9
86 73 71 68 62 57 52 46 41 36 32 29 26 22 19 20 19 13 6 6 21 7 10 19 19 22 13 10 7 5 5 10 16 17 15 15 19 5 17 14 19 33 5 14 9 14 7 16 14 16 18 16 15 14
81 75 72 68 63 57 51 46 41 35 31 28 25 23 20 18 18 10 8 6 6 20 9 9 13 21 18 13 12 10 10 10 14 13 17 10 5 9 16 15 13 3 4 6 9 1 12 19 19 19 18 16 16 16
74 74 72 67 61 56 50 45 40 34 30 27 23 21 19 17 16 11 4 6 6 16 8 9 13 19 18 16 15 15 11 13 14 16 11 26 9 8 16 23 4 5 2 6 9 8 17 24 19 16 17 16 15 18
76 73 70 65 59 54 49 44 38 33 28 24 20 18 15 14 11 4 8 3 3 7 9 8 7 18 22 24 23 14 18 16 17 21 6 17 15 13 11 22 25 9 14 11 15 22 11 18 12 8 13 18 20 18
78 73 67 62 57 52 47 42 37 31 26 22 19 16 12 8 9 10 8 4 2 8 9 13 10 9 23 15 4 12 9 11 9 14 30 10 16 16 10 15 25 15 15 15 12 18 20 21 11 11 16 15 16 23
76 71 66 60 55 50 45 39 34 30 26 23 23 7 12 12 10 10 1 3 5 9 8 15 4 7 15 22 19 5 9 9 7 12 1 8 21 42 20 5 17 26 20 10 19 20 24 22 10 7 15 26 29 28
73 67 63 57 52 47 42 37 33 29 27 21 16 7 4 17 8 7 10 12 14 10 16 15 9 3 5 10 2 5 1 2 9 6 7 10 7 13 12 11 17 19 23 23 23 9 6 7 19 23 28 32 31 33
68 63 58 53 49 45 40 36 33 31 20 21 13 14 13 9 10 10 9 9 10 9 13 18 13 4 6 2 8 7 7 6 10 5 6 14 14 15 11 11 8 8 18 23 14 13 14 19 24 30 33 33 34 36
62 57 52 48 45 42 39 35 32 27 26 26 8 11 7 9 3 12 14 11 10 10 10 14 15 13 9 7 7 4 8 10 3 7 10 13 16 12 14 10 7 9 14 15 17 15 16 23 28 32 35 34 34 33
55 49 46 43 40 38 36 33 31 33 21 13 13 4 10 10 11 10 12 11 15 10 15 16 13 15 8 11 6 7 2 4 7 8 8 19 19 14 6 6 4 7 11 14 16 17 20 25 29 32 33 33 33 31
48 46 45 40 36 34 32 31 32 27 4 8 8 7 13 6 7 5 5 9 9 6 12 11 7 13 17 7 8 4 6 8 7 6 19 18 15 12 6 7 3 5 8 10 12 17 20 26 31 32 31 30 29 28
49 48 41 38 33 30 30 28 27 10 3 2 5 7 7 13 15 14 13 14 5 8 9 7 7 8 10 7 10 14 8 8 5 13 15 12 13 12 11 8 2 2 4 7 11 16 22 27 29 31 31 28 26 25
54 51 44 36 33 31 30 22 10 4 3 2 8 1 2 0 16 17 7 7 2 11 15 6 8 11 3 9 11 4 8 12 16 12 14 14 13 10 9 5 1 6 7 9 12 17 22 26 29 29 29 27 25 23
55 53 45 40 37 33 30 15 7 5 5 4 10 11 3 6 11 13 9 3 5 5 5 3 6 10 7 7 8 11 3 13 8 9 9 11 13 9 5 3 3 6 9 11 14 19 24 28 27 25 25 25 23 22
59 50 43 39 41 28 9 5 9 3 5 8 6 9 7 10 5 8 5 4 3 4 5 7 7 8 7 3 10 14 10 3 8 4 1 7 10 10 7 2 2 5 8 12 17 20 24 26 21 23 22 25 23 23
41 47 39 34 33 13 10 6 9 0 9 7 7 14 11 10 11 10 7 4 4 8 11 8 14 2 13 15 7 10 8 2 9 11 9 8 7 5 5 4 1 5 7 9 14 20 22 22 21 21 24 25 27 27
32 35 28 26 31 17 7 5 5 4 5 9 11 12 10 10 14 15 12 9 11 10 12 13 5 5 2 1 2 2 1 2 6 7 14 18 15 13 9 6 4 7 10 12 16 17 23 25 22 22 24 27 28 28
35 38 32 21 11 7 6 3 3 6 4 7 11 9 10 13 14 13 9 12 13 16 15 4 7 5 10 8 2 4 5 9 9 11 15 14 18 18 17 20 5 10 15 16 18 20 26 28 26 24 26 26 28 29
24 17 11 9 8 5 1 4 4 4 6 12 9 4 6 8 8 4 10 17 20 21 19 20 17 16 18 16 17 18 16 16 17 21 20 20 23 20 21 23 23 21 25 22 19 25 23 21 19 29 28 29 31 32
19 9 5 5 5 5 11 8 6 8 8 10 9 8 9 11 11 10 13 28 29 24 24 23 26 28 29 30 33 32 30 28 29 30 30 29 30 30 31 32 29 27 27 28 31 26 29 17 24 28 32 36 40 40
3 5 6 0 6 9 10 13 11 11 8 11 11 8 8 6 7 9 12 18 25 23 25 24 25 28 31 32 33 33 29 33 37 38 39 38 40 41 41 40 40 41 39 40 40 39 39 37 37 37 36 37 37 40
3 6 7 6 10 9 10 10 12 14 10 12 10 6 8 8 7 8 9 24 20 19 22 23 20 23 26 27 27 27 29 31 36 42 43 43 47 50 53 55 56 54 46 47 47 44 45 41 41 42 42 42 45 48
3 6 8 3 10 8 6 7 8 12 10 9 9 12 9 8 9 9 11 14 17 16 15 18 21 25 28 28 27 26 27 29 32 36 37 38 41 42 45 49 53 52 48 44 39 38 40 41 45 49 51 47 42 42
1 5 9 9 6 2 5 6 7 11 11 14 13 13 8 8 5 5 9 7 6 11 15 17 19 22 24 23 22 21 24 24 25 28 26 28 33 39 41 43 43 47 44 42 44 46 47 49 49 47 46 47 46 40
6 9 8 7 2 4 8 11 18 15 18 23 22 22 34 19 17 18 13 14 19 24 27 29 29 25 22 24 29 32 32 32 32 32 33 35 32 22 14 24 21 20 24 24 24 24 25 26 29 33 35 38 42 45
10 12 10 9 10 9 15 17 18 22 24 28 28 29 32 35 37 35 33 32 34 34 33 32 32 34 36 37 38 37 36 34 33 35 39 39 38 35 29 27 27 26 32 30 29 31 35 34 37 39 39 37 38 40
9 13 19 23 24 26 24 21 23 23 23 27 27 34 36 35 34 34 36 38 40 40 39 40 41 41 43 44 46 47 50 48 48 47 47 47 46 43 44 42 40 40 40 40 41 42 42 42 41 42 43 42 41 38
12 18 25 25 27 27 25 27 29 30 34 35 38 39 40 38 40 39 35 29 26 25 24 25 27 30 30 35 38 41 43 46 48 46 47 47 48 48 47 47 44 43 44 45 45 46 45 44 43 40 38 35 32 30
15 22 22 19 25 26 26 28 25 29 34 39 40 39 38 37 26 23 11 11 10 9 13 18 22 24 25 26 27 29 31 32 34 40 45 46 49 51 53 51 46 44 44 42 41 44 45 40 36 38 32 27 25 23
Wind_Direction_500mb
209 207 197 194 191 192 187 186 187 188 188 187 185 185 188 190 185 166 217 207 202 241 151 207 257 243 221 235 257 78 211 214 223 236 250 247 271 212 240 259 290 287 280 271 256 276 255 24 343 1 48 72 15 355
199 201 193 191 189 190 186 184 184 186 186 184 183 182 179 182 187 183 207 213 206 235 10 215 220 226 224 7 326 255 329 320 359 249 233 263 129 255 295 279 126 240 284 318 319 353 90 181 226 88 75 16 356 14
194 189 191 189 186 187 185 182 182 183 183 183 182 179 172 173 178 175 193 204 201 230 242 236 231 227 222 215 239 283 106 345 289 309 320 311 304 315 248 233 248 198 185 267 297 202 260 126 148 261 233 37 62 47
189 190 190 186 184 184 182 181 180 180 181 181 181 176 169 168 170 171 195 210 192 253 246 177 189 200 200 188 195 287 322 317 301 280 269 269 255 311 267 336 264 346 128 285 282 260 246 155 50 42 90 122 105 72
183 188 186 183 182 181 180 179 178 179 179 179 180 177 171 170 170 157 124 165 200 220 286 150 189 205 206 195 213 238 284 306 271 249 228 243 255 290 264 313 295 284 256 277 4 4 82 88 102 105 99 83 65 46
183 182 182 180 179 179 178 177 178 178 177 180 181 180 176 171 172 158 201 254 220 210 273 222 127 178 199 208 218 238 258 278 268 286 267 261 19 341 269 263 265 247 71 281 326 22 115 125 112 109 95 68 46 31
177 178 179 177 177 178 177 176 176 176 178 179 181 180 179 177 172 212 348 173 212 183 243 245 172 193 196 204 225 234 235 247 260 269 252 265 177 223 265 268 281 165 156 291 258 199 175 158 138 131 107 90 72 83
175 175 175 175 175 176 176 176 175 175 176 176 177 176 173 170 158 176 217 196 167 180 235 262 111 164 188 211 205 211 231 217 222 257 255 253 207 227 262 271 278 273 298 270 243 215 223 164 158 124 120 106 115 117
172 173 173 173 174 175 175 175 175 174 172 168 165 157 151 162 190 206 210 236 210 196 263 231 224 167 171 220 206 184 234 233 185 243 243 234 253 247 247 279 282 292 250 275 212 194 180 176 158 144 121 120 122 111
169 170 171 173 173 174 174 174 173 170 166 159 149 156 179 192 180 174 237 207 212 209 237 255 267 164 204 179 194 184 201 262 228 206 169 247 255 264 273 263 275 281 239 236 191 192 198 184 162 171 144 136 127 130
166 168 170 172 173 173 173 171 168 164 159 153 173 180 124 163 137 192 209 219 179 217 191 228 258 229 177 247 180 215 3 82 250 152 237 244 205 59 4 298 270 258 242 236 243 207 244 149 156 150 134 129 129 113
164 167 170 171 172 173 172 170 167 157 170 172 166 152 136 175 199 206 201 186 226 208 157 209 168 338 116 284 274 155 255 180 256 91 249 252 77 37 8 346 287 254 214 197 180 182 158 155 155 144 138 130 123 119
161 164 168 170 172 173 172 171 171 166 152 146 146 165 194 161 152 205 188 198 188 171 161 175 167 191 172 211 250 232 219 235 32 236 240 85 62 39 32 15 66 141 170 174 162 189 172 147 146 145 137 132 127 125
160 164 167 169 171 172 172 170 163 158 138 187 158 24 207 189 218 200 211 183 94 137 176 195 145 204 189 188 193 233 175 292 246 250 235 60 36 20 12 8 104 106 139 153 158 159 155 150 149 144 143 139 134 133
159 160 163 165 167 168 171 168 162 158 127 171 193 198 199 79 65 96 45 109 111 152 184 177 201 221 191 194 212 203 196 222 224 267 68 49 28 26 27 20 34 127 143 154 165 164 157 157 154 149 148 144 144 141
157 157 155 159 162 163 164 158 161 141 53 153 191 200 154 196 146 171 170 128 150 180 180 218 189 218 188 222 185 203 226 217 170 87 76 41 18 13 14 4 326 215 165 159 162 167 166 165 163 158 153 152 149 149
160 147 154 160 160 155 152 139 127 94 80 150 171 299 318 260 138 124 132 95 236 217 207 191 210 187 99 213 218 173 230 96 126 103 72 26 14 357 354 357 246 198 190 179 169 167 170 171 169 162 159 158 159 160
148 143 146 151 152 148 143 126 79 105 149 161 204 152 161 120 136 137 133 110 225 225 216 325 10 216 216 190 230 142 120 111 93 60 60 25 20 12 330 292 232 192 186 180 176 173 176 174 174 175 173 168 170 175
145 143 146 150 153 139 95 61 64 88 84 142 145 177 179 157 119 131 132 102 135 219 263 215 237 235 221 195 350 136 120 30 59 333 149 61 23 20 16 346 173 181 182 179 180 184 187 183 192 193 192 191 193 199
134 137 128 153 152 80 59 45 90 155 176 141 165 187 192 169 158 182 187 181 199 220 203 231 242 69 14 71 32 57 91 276 285 291 317 4 14 339 3 335 241 212 182 185 185 185 191 196 204 211 208 212 210 215
131 120 91 136 104 82 100 98 140 118 143 189 146 180 163 171 191 195 197 192 218 222 222 220 240 130 303 2 58 43 280 320 332 310 330 305 338 299 269 272 261 232 228 216 214 209 209 218 227 229 225 221 220 224
119 114 105 88 76 63 71 51 105 122 183 137 170 193 181 190 192 203 207 222 224 225 241 254 220 169 199 207 263 359 318 325 293 274 279 274 280 296 305 331 283 272 270 246 246 245 228 229 234 235 234 233 229 230
124 102 70 64 103 103 134 127 163 173 175 156 169 183 200 205 213 164 240 231 230 227 236 241 252 255 259 264 272 281 276 278 276 268 271 271 273 276 275 277 277 274 275 274 279 270 253 260 252 242 246 241 240 240
97 84 82 93 113 120 153 175 162 167 179 181 199 211 204 208 217 229 250 249 247 240 241 245 253 259 258 256 259 261 262 262 263 262 260 266 269 270 272 273 270 267 274 276 276 277 286 265 261 262 257 253 254 254
80 86 119 176 161 153 168 173 186 188 191 191 192 199 192 171 229 243 246 235 235 239 247 252 255 258 262 265 265 265 264 261 263 265 263 264 270 273 271 269 269 269 271 271 269 268 268 266 264 263 263 265 265 261
124 147 194 154 154 167 164 175 191 200 202 192 201 226 202 210 249 246 237 225 228 242 253 251 259 268 267 266 269 270 271 268 268 270 269 268 268 269 272 273 274 273 271 272 273 284 268 264 271 277 270 267 271 273
187 140 148 140 126 157 199 226 212 206 204 205 211 200 186 221 234 232 220 229 242 250 258 264 267 268 270 271 269 271 276 277 275 276 276 273 270 269 271 274 276 274 276 277 277 274 270 269 273 277 279 283 270 269
326 136 133 173 132 214 273 282 219 218 229 218 223 207 207 220 243 233 166 166 223 270 277 276 272 268 266 263 266 271 279 286 291 287 282 283 283 280 272 270 270 271 275 274 270 268 270 273 275 276 278 279 281 283
204 211 197 174 94 317 253 236 233 241 228 235 245 237 247 256 263 282 267 281 287 280 274 270 268 271 258 258 262 263 268 274 281 285 290 293 294 340 311 285 283 280 279 270 268 274 277 284 289 289 283 280 279 279
246 209 224 256 201 224 232 223 248 252 247 239 243 248 252 252 254 260 266 267 268 270 270 270 269 268 269 270 271 272 269 268 268 272 276 279 279 282 289 289 294 291 284 294 292 286 295 295 300 298 299 295 291 290
242 221 235 244 257 257 261 247 243 248 251 255 245 247 252 257 260 260 261 265 268 269 269 270 270 268 268 268 268 271 273 270 271 272 274 275 276 273 274 275 275 276 277 278 279 281 284 287 287 287 286 286 287 286
236 242 246 254 259 258 253 249 251 251 252 249 249 251 254 257 260 269 269 255 252 254 263 270 277 279 277 273 271 270 271 273 273 273 273 271 268 268 270 273 275 273 272 272 276 279 282 284 286 287 287 288 288 285
268 256 254 259 263 261 255 239 251 257 246 242 245 245 244 243 240 243 252 228 237 276 292 292 291 290 289 287 284 282 280 278 277 275 272 273 269 268 268 265 262 263 270 270 270 276 277 278 279 278 275 280 281 277
Wind_Speed_850mb
53 60 56 58 56 54 50 45 42 38 33 30 26 23 22 28 27 20 17 23 20 24 5 16 8 10 10 14 15 11 10 18 16 20 22 18 12 5 14 16 15 18 19 21 23 28 29 38 17 8 9 5 6 9
69 62 62 62 58 55 50 45 42 37 33 29 25 21 19 23 27 23 10 21 23 18 9 11 12 9 4 5 11 6 7 8 12 10 18 17 8 19 5 18 9 14 13 13 15 11 16 17 31 6 1 3 9 7
71 66 63 65 61 56 50 45 41 37 32 28 25 21 18 19 23 22 9 13 14 17 26 22 24 17 5 4 4 11 9 10 3 8 18 11 7 11 11 18 22 19 5 11 17 2 2 5 3 2 2 1 5 6
76 69 67 66 61 56 51 46 41 36 32 28 25 21 18 19 20 15 8 15 17 9 18 29 14 9 11 6 2 3 8 9 9 10 21 13 15 6 19 9 11 16 7 17 18 25 11 6 12 6 8 9 9 9
86 73 71 68 62 57 52 46 41 36 32 29 26 22 19 20 19 13 6 6 21 7 10 19 19 22 13 10 7 5 5 10 16 17 15 15 19 5 17 14 19 33 5 14 9 14 7 16 14 16 18 16 15 14
81 75 72 68 63 57 51 46 41 35 31 28 25 23 20 18 18 10 8 6 6 20 9 9 13 21 18 13 12 10 10 10 14 13 17 10 5 9 16 15 13 3 4 6 9 1 12 19 19 19 18 16 16 16
74 74 72 67 61 56 50 45 40 34 30 27 23 21 19 17 16 11 4 6 6 16 8 9 13 19 18 16 15 15 11 13 14 16 11 26 9 8 16 23 4 5 2 6 9 8 17 24 19 16 17 16 15 18
76 73 70 65 59 54 49 44 38 33 28 24 20 18 15 14 11 4 8 3 3 7 9 8 7 18 22 24 23 14 18 16 17 21 6 17 15 13 11 22 25 9 14 11 15 22 11 18 12 8 13 18 20 18
78 73 67 62 57 52 47 42 37 31 26 22 19 16 12 8 9 10 8 4 2 8 9 13 10 9 23 15 4 12 9 11 9 14 30 10 16 16 10 15 25 15 15 15 12 18 20 21 11 11 16 15 16 23
76 71 66 60 55 50 45 39 34 30 26 23 23 7 12 12 10 10 1 3 5 9 8 15 4 7 15 22 19 5 9 9 7 12 1 8 21 42 20 5 17 26 20 10 19 20 24 22 10 7 15 26 29 28
73 67 63 57 52 47 42 37 33 29 27 21 16 7 4 17 8 7 10 12 14 10 16 15 9 3 5 10 2 5 1 2 9 6 7 10 7 13 12 11 17 19 23 23 23 9 6 7 19 23 28 32 31 33
68 63 58 53 49 45 40 36 33 31 20 21 13 14 13 9 10 10 9 9 10 9 13 18 13 4 6 2 8 7 7 6 10 5 6 14 14 15 11 11 8 8 18 23 14 13 14 19 24 30 33 33 34 36
62 57 52 48 45 42 39 35 32 27 26 26 8 11 7 9 3 12 14 11 10 10 10 14 15 13 9 7 7 4 8 10 3 7 10 13 16 12 14 10 7 9 14 15 17 15 16 23 28 32 35 34 34 33
55 49 46 43 40 38 36 33 31 33 21 13 13 4 10 10 11 10 12 11 15 10 15 16 13 15 8 11 6 7 2 4 7 8 8 19 19 14 6 6 4 7 11 14 16 17 20 25 29 32 33 33 33 31
48 46 45 40 36 34 32 31 32 27 4 8 8 7 13 6 7 5 5 9 9 6 12 11 7 13 17 7 8 4 6 8 7 6 19 18 15 12 6 7 3 5 8 10 12 17 20 26 31 32 31 30 29 28
49 48 41 38 33 30 30 28 27 10 3 2 5 7 7 13 15 14 13 14 5 8 9 7 7 8 10 7 10 14 8 8 5 13 15 12 13 12 11 8 2 2 4 7 11 16 22 27 29 31 31 28 26 25
54 51 44 36 33 31 30 22 10 4 3 2 8 1 2 0 16 17 7 7 2 11 15 6 8 11 3 9 11 4 8 12 16 12 14 14 13 10 9 5 1 6 7 9 12 17 22 26 29 29 29 27 25 23
55 53 45 40 37 33 30 15 7 5 5 4 10 11 3 6 11 13 9 3 5 5 5 3 6 10 7 7 8 11 3 13 8 9 9 11 13 9 5 3 3 6 9 11 14 19 24 28 27 25 25 25 23 22
59 50 43 39 41 28 9 5 9 3 5 8 6 9 7 10 5 8 5 4 3 4 5 7 7 8 7 3 10 14 10 3 8 4 1 7 10 10 7 2 2 5 8 12 17 20 24 26 21 23 22 25 23 23
41 47 39 34 33 13 10 6 9 0 9 7 7 14 11 10 11 10 7 4 4 8 11 8 14 2 13 15 7 10 8 2 9 11 9 8 7 5 5 4 1 5 7 9 14 20 22 22 21 21 24 25 27 27
32 35 28 26 31 17 7 5 5 4 5 9 11 12 10 10 14 15 12 9 11 10 12 13 5 5 2 1 2 2 1 2 6 7 14 18 15 13 9 6 4 7 10 12 16 17 23 25 22 22 24 27 28 28
35 38 32 21 11 7 6 3 3 6 4 7 11 9 10 13 14 13 9 12 13 16 15 4 7 5 10 8 2 4 5 9 9 11 15 14 18 18 17 20 5 10 15 16 18 20 26 28 26 24 26 26 28 29
24 17 11 9 8 5 1 4 4 4 6 12 9 4 6 8 8 4 10 17 20 21 19 20 17 16 18 16 17 18 16 16 17 21 20 20 23 20 21 23 23 21 25 22 19 25 23 21 19 29 28 29 31 32
19 9 5 5 5 5 11 8 6 8 8 10 9 8 9 11 11 10 13 28 29 24 24 23 26 28 29 30 33 32 30 28 29 30 30 29 30 30 31 32 29 27 27 28 31 26 29 17 24 28 32 36 40 40
3 5 6 0 6 9 10 13 11 11 8 11 11 8 8 6 7 9 12 18 25 23 25 24 25 28 31 32 33 33 29 33 37 38 39 38 40 41 41 40 40 41 39 40 40 39 39 37 37 37 36 37 37 40
3 6 7 6 10 9 10 10 12 14 10 12 10 6 8 8 7 8 9 24 20 19 22 23 20 23 26 27 27 27 29 31 36 42 43 43 47 50 53 55 56 54 46 47 47 44 45 41 41 42 42 42 45 48
3 6 8 3 10 8 6 7 8 12 10 9 9 12 9 8 9 9 11 14 17 16 15 18 21 25 28 28 27 26 27 29 32 36 37 38 41 42 45 49 53 52 48 44 39 38 40 41 45 49 51 47 42 42
1 5 9 9 6 2 5 6 7 11 11 14 13 13 8 8 5 5 9 7 6 11 15 17 19 22 24 23 22 21 24 24 25 28 26 28 33 39 41 43 43 47 44 42 44 46 47 49 49 47 46 47 46 40
6 9 8 7 2 4 8 11 18 15 18 23 22 22 34 19 17 18 13 14 19 24 27 29 29 25 22 24 29 32 32 32 32 32 33 35 32 22 14 24 21 20 24 24 24 24 25 26 29 33 35 38 42 45
10 12 10 9 10 9 15 17 18 22 24 28 28 29 32 35 37 35 33 32 34 34 33 32 32 34 36 37 38 37 36 34 33 35 39 39 38 35 29 27 27 26 32 30 29 31 35 34 37 39 39 37 38 40
9 13 19 23 24 26 24 21 23 23 23 27 27 34 36 35 34 34 36 38 40 40 39 40 41 41 43 44 46 47 50 48 48 47 47 47 46 43 44 42 40 40 40 40 41 42 42 42 41 42 43 42 41 38
12 18 25 25 27 27 25 27 29 30 34 35 38 39 40 38 40 39 35 29 26 25 24 25 27 30 30 35 38 41 43 46 48 46 47 47 48 48 47 47 44 43 44 45 45 46 45 44 43 40 38 35 32 30
15 22 22 19 25 26 26 28 25 29 34 39 40 39 38 37 26 23 11 11 10 9 13 18 22 24 25 26 27 29 31 32 34 40 45 46 49 51 53 51 46 44 44 42 41 44 45 40 36 38 32 27 25 23
Wind_Direction_850mb
209 207 197 194 191 192 187 186 187 188 188 187 185 185 188 190 185 166 217 207 202 241 151 207 257 243 221 235 257 78 211 214 223 236 250 247 271 212 240 259 290 287 280 271 256 276 255 24 343 1 48 72 15 355
199 201 193 191 189 190 186 184 184 186 186 184 183 182 179 182 187 183 207 213 206 235 10 215 220 226 224 7 326 255 329 320 359 249 233 263 129 255 295 279 126 240 284 318 319 353 90 181 226 88 75 16 356 14
194 189 191 189 186 187 185 182 182 183 183 183 182 179 172 173 178 175 193 204 201 230 242 236 231 227 222 215 239 283 106 345 289 309 320 311 304 315 248 233 248 198 185 267 297 202 260 126 148 261 233 37 62 47
189 190 190 186 184 184 182 181 180 180 181 181 181 176 169 168 170 171 195 210 192 253 246 177 189 200 200 188 195 287 322 317 301 280 269 269 255 311 267 336 264 346 128 285 282 260 246 155 50 42 90 122 105 72
183 188 186 183 182 181 180 179 178 179 179 179 180 177 171 170 170 157 124 165 200 220 286 150 189 205 206 195 213 238 284 306 271 249 228 243 255 290 264 313 295 284 256 277 4 4 82 88 102 105 99 83 65 46
183 182 182 180 179 179 178 177 178 178 177 180 181 180 176 171 172 158 201 254 220 210 273 222 127 178 199 208 218 238 258 278 268 286 267 261 19 341 269 263 265 247 71 281 326 22 115 125 112 109 95 68 46 31
177 178 179 177 177 178 177 176 176 176 178 179 181 180 179 177 172 212 348 173 212 183 243 245 172 193 196 204 225 234 235 247 260 269 252 265 177 223 265 268 281 165 156 291 258 199 175 158 138 131 107 90 72 83
175 175 175 175 175 176 176 176 175 175 176 176 177 176 173 170 158 176 217 196 167 180 235 262 111 164 188 211 205 211 231 217 222 257 255 253 207 227 262 271 278 273 298 270 243 215 223 164 158 124 120 106 115 117
172 173 173 173 174 175 175 175 175 174 172 168 165 157 151 162 190 206 210 236 210 196 263 231 224 167 171 220 206 184 234 233 185 243 243 234 253 247 247 279 282 292 250 275 212 194 180 176 158 144 121 120 122 111
169 170 171 173 173 174 174 174 173 170 166 159 149 156 179 192 180 174 237 207 212 209 237 255 267 164 204 179 194 184 201 262 228 206 169 247 255 264 273 263 275 281 239 236 191 192 198 184 162 171 144 136 127 130
166 168 170 172 173 173 173 171 168 164 159 153 173 180 124 163 137 192 209 219 179 217 191 228 258 229 177 247 180 215 3 82 250 152 237 244 205 59 4 298 270 258 242 236 243 207 244 149 156 150 134 129 129 113
164 167 170 171 172 173 172 170 167 157 170 172 166 152 136 175 199 206 201 186 226 208 157 209 168 338 116 284 274 155 255 180 256 91 249 252 77 37 8 346 287 254 214 197 180 182 158 155 155 144 138 130 123 119
161 164 168 170 172 173 172 171 171 166 152 146 146 165 194 161 152 205 188 198 188 171 161 175 167 191 172 211 250 232 219 235 32 236 240 85 62 39 32 15 66 141 170 174 162 189 172 147 146 145 137 132 127 125
160 164 167 169 171 172 172 170 163 158 138 187 158 24 207 189 218 200 211 183 94 137 176 195 145 204 189 188 193 233 175 292 246 250 235 60 36 20 12 8 104 106 139 153 158 159 155 150 149 144 143 139 134 133
159 160 163 165 167 168 171 168 162 158 127 171 193 198 199 79 65 96 45 109 111 152 184 177 201 221 191 194 212 203 196 222 224 267 68 49 28 26 27 20 34 127 143 154 165 164 157 157 154 149 148 144 144 141
157 157 155 159 162 163 164 158 161 141 53 153 191 200 154 196 146 171 170 128 150 180 180 218 189 218 188 222 185 203 226 217 170 87 76 41 18 13 14 4 326 215 165 159 162 167 166 165 163 158 153 152 149 149
160 147 154 160 160 155 152 139 127 94 80 150 171 299 318 260 138 124 132 95 236 217 207 191 210 187 99 213 218 173 230 96 126 103 72 26 14 357 354 357 246 198 190 179 169 167 170 171 169 162 159 158 159 160
148 143 146 151 152 148 143 126 79 105 149 161 204 152 161 120 136 137 133 110 225 225 216 325 10 216 216 190 230 142 120 111 93 60 60 25 20 12 330 292 232 192 186 180 176 173 176 174 174 175 173 168 170 175
145 143 146 150 153 139 95 61 64 88 84 142 145 177 179 157 119 131 132 102 135 219 263 215 237 235 221 195 350 136 120 30 59 333 149 61 23 20 16 346 173 181 182 179 180 184 187 183 192 193 192 191 193 199
134 137 128 153 152 80 59 45 90 155 176 141 165 187 192 169 158 182 187 181 199 220 203 231 242 69 14 71 32 57 91 276 285 291 317 4 14 339 3 335 241 212 182 185 185 185 191 196 204 211 208 212 210 215
131 120 91 136 104 82 100 98 140 118 143 189 146 180 163 171 191 195 197 192 218 222 222 220 240 130 303 2 58 43 280 320 332 310 330 305 338 299 269 272 261 232 228 216 214 209 209 218 227 229 225 221 220 224
119 114 105 88 76 63 71 51 105 122 183 137 170 193 181 190 192 203 207 222 224 225 241 254 220 169 199 207 263 359 318 325 293 274 279 274 280 296 305 331 283 272 270 246 246 245 228 229 234 235 234 233 229 230
124 102 70 64 103 103 134 127 163 173 175 156 169 183 200 205 213 164 240 231 230 227 236 241 252 255 259 264 272 281 276 278 276 268 271 271 273 276 275 277 277 274 275 274 279 270 253 260 252 242 246 241 240 240
97 84 82 93 113 120 153 175 162 167 179 181 199 211 204 208 217 229 250 249 247 240 241 245 253 259 258 256 259 261 262 262 263 262 260 266 269 270 272 273 270 267 274 276 276 277 286 265 261 262 257 253 254 254
80 86 119 176 161 153 168 173 186 188 191 191 192 199 192 171 229 243 246 235 235 239 247 252 255 258 262 265 265 265 264 261 263 265 263 264 270 273 271 269 269 269 271 271 269 268 268 266 264 263 263 265 265 261
124 147 194 154 154 167 164 175 191 200 202 192 201 226 202 210 249 246 237 225 228 242 253 251 259 268 267 266 269 270 271 268 268 270 269 268 268 269 272 273 274 273 271 272 273 284 268 264 271 277 270 267 271 273
187 140 148 140 126 157 199 226 212 206 204 205 211 200 186 221 234 232 220 229 242 250 258 264 267 268 270 271 269 271 276 277 275 276 276 273 270 269 271 274 276 274 276 277 277 274 270 269 273 277 279 283 270 269
326 136 133 173 132 214 273 282 219 218 229 218 223 207 207 220 243 233 166 166 223 270 277 276 272 268 266 263 266 271 279 286 291 287 282 283 283 280 272 270 270 271 275 274 270 268 270 273 275 276 278 279 281 283
204 211 197 174 94 317 253 236 233 241 228 235 245 237 247 256 263 282 267 281 287 280 274 270 268 271 258 258 262 263 268 274 281 285 290 293 294 340 311 285 283 280 279 270 268 274 277 284 289 289 283 280 279 279
246 209 224 256 201 224 232 223 248 252 247 239 243 248 252 252 254 260 266 267 268 270 270 270 269 268 269 270 271 272 269 268 268 272 276 279 279 282 289 289 294 291 284 294 292 286 295 295 300 298 299 295 291 290
242 221 235 244 257 257 261 247 243 248 251 255 245 247 252 257 260 260 261 265 268 269 269 270 270 268 268 268 268 271 273 270 271 272 274 275 276 273 274 275 275 276 277 278 279 281 284 287 287 287 286 286 287 286
236 242 246 254 259 258 253 249 251 251 252 249 249 251 254 257 260 269 269 255 252 254 263 270 277 279 277 273 271 270 271 273 273 273 273 271 268 268 270 273 275 273 272 272 276 279 282 284 286 287 287 288 288 285
268 256 254 259 263 261 255 239 251 257 246 242 245 245 244 243 240 243 252 228 237 276 292 292 291 290 289 287 284 282 280 278 277 275 272 273 269 268 268 265 262 263 270 270 270 276 277 278 279 278 275 280 281 277